This is the latest recevied weather packets stored in our database for station/object W4NRG-1. If no packets are shown the sender has not sent any weather packets the latest 1 day(s).
| Time | Temp. | Humidity | Pressure | Rain* | Wind** | Luminosity | Snow |
|---|---|---|---|---|---|---|---|
| 1777996904 | 25.56° C | 45% | 1014.8 hPa | 0 mm | 2.24 m/s, 38° | - | - |
| 1777996600 | 25.56° C | 45% | 1014.8 hPa | 0 mm | 0.45 m/s, 347° | - | - |
| 1777996296 | 25.56° C | 46% | 1014.8 hPa | 0 mm | 1.79 m/s, 2° | - | - |
| 1777995993 | 25.56° C | 46% | 1014.9 hPa | 0 mm | 1.79 m/s, 322° | - | - |
| 1777995689 | 25° C | 45% | 1014.8 hPa | 0 mm | 0.89 m/s, 332° | - | - |
| 1777995386 | 25.56° C | 45% | 1014.8 hPa | 0 mm | 2.68 m/s, 334° | - | - |
| 1777995084 | 25° C | 49% | 1014.7 hPa | 0 mm | 0 m/s | - | - |
| 1777994780 | 24.44° C | 49% | 1014.8 hPa | 0 mm | 1.34 m/s, 71° | - | - |
| 1777994476 | 24.44° C | 48% | 1014.8 hPa | 0 mm | 1.79 m/s, 49° | - | - |
| 1777994171 | 24.44° C | 52% | 1014.5 hPa | 0 mm | 0.89 m/s, 75° | - | - |
| 1777993869 | 24.44° C | 49% | 1014.8 hPa | 0 mm | 1.79 m/s, 349° | - | - |
| 1777993565 | 23.89° C | 52% | 1014.8 hPa | 0 mm | 0.89 m/s, 355° | - | - |
| 1777993262 | 23.89° C | 50% | 1014.8 hPa | 0 mm | 0.89 m/s, 48° | - | - |
| 1777992957 | 23.33° C | 49% | 1014.8 hPa | 0 mm | 1.79 m/s, 6° | - | - |
| 1777992656 | 23.33° C | 49% | 1014.8 hPa | 0 mm | 0.89 m/s, 232° | - | - |
| 1777992353 | 23.33° C | 51% | 1014.6 hPa | 0 mm | 0.89 m/s, 3° | - | - |
| 1777992051 | 23.33° C | 52% | 1014.8 hPa | 0 mm | 0.89 m/s, 132° | - | - |
| 1777991748 | 22.78° C | 51% | 1014.8 hPa | 0 mm | 0.89 m/s, 54° | - | - |
| 1777991445 | 23.33° C | 51% | 1014.8 hPa | 0 mm | 1.79 m/s, 339° | - | - |
| 1777991142 | 22.78° C | 51% | 1014.7 hPa | 0 mm | 1.34 m/s, 358° | - | - |
| 1777990839 | 22.22° C | 53% | 1014.8 hPa | 0 mm | 0.89 m/s, 14° | - | - |
| 1777990537 | 22.22° C | 53% | 1014.8 hPa | 0 mm | 0.89 m/s, 70° | - | - |
| 1777990234 | 21.67° C | 55% | 1014.9 hPa | 0 mm | 0.89 m/s, 330° | - | - |
| 1777989931 | 21.67° C | 54% | 1014.9 hPa | 0 mm | 1.34 m/s, 62° | - | - |
| 1777989627 | 21.11° C | 54% | 1014.9 hPa | 0 mm | 2.68 m/s, 251° | - | - |
* Rain latest hour (hover to see other rain measurements)
** Current wind speed in m/s (hover to see current wind gust speed)